Time,TemperatureF,DewpointF,PressureIn,WindDirection,WindDirectionDegrees,WindSpeedMPH,WindSpeedGustMPH,Humidity,HourlyPrecipIn,Conditions,Clouds,dailyrainin,SoftwareType,DateUTC
2013-08-19 00:01:00,69.4,69.1,30.11,NW,315,0.0,0.0,99,0.01,,,0.01,meteobridge,2013-08-19 04:01:00,
2013-08-19 00:02:00,69.4,69.1,30.11,NW,315,0.0,0.0,99,0.01,,,0.01,meteobridge,2013-08-19 04:02:00,
2013-08-19 00:03:00,69.4,69.1,30.10,NW,315,0.0,0.0,99,0.01,,,0.01,meteobridge,2013-08-19 04:03:00,
2013-08-19 00:05:00,69.4,69.1,30.10,NW,315,0.0,0.0,99,0.01,,,0.01,meteobridge,2013-08-19 04:05:00,
2013-08-19 00:07:00,69.4,69.1,30.11,NW,315,0.0,0.0,99,0.01,,,0.01,meteobridge,2013-08-19 04:07:00,
2013-08-19 00:13:00,69.3,68.9,30.11,NW,315,0.0,0.0,99,0.00,,,0.01,meteobridge,2013-08-19 04:13:00,
2013-08-19 00:19:00,69.3,68.9,30.11,NW,315,0.0,0.0,99,0.00,,,0.01,meteobridge,2013-08-19 04:19:00,
2013-08-19 00:25:00,69.3,68.9,30.11,NW,315,0.0,0.0,99,0.00,,,0.01,meteobridge,2013-08-19 04:25:00,
2013-08-19 00:30:00,69.3,68.9,30.11,NW,315,0.0,0.0,99,0.00,,,0.01,meteobridge,2013-08-19 04:30:00,
2013-08-19 00:36:00,69.3,68.9,30.11,NW,315,0.0,0.0,99,0.00,,,0.01,meteobridge,2013-08-19 04:36:00,
2013-08-19 00:42:00,69.3,68.9,30.11,NW,315,0.0,0.0,99,0.00,,,0.01,meteobridge,2013-08-19 04:42:00,
2013-08-19 00:48:00,69.3,68.9,30.11,NW,315,0.0,0.0,99,0.00,,,0.01,meteobridge,2013-08-19 04:48:00,
2013-08-19 00:54:00,69.3,68.9,30.11,NW,315,0.0,0.0,99,0.00,,,0.01,meteobridge,2013-08-19 04:54:00,
2013-08-19 01:00:00,69.3,68.9,30.11,NW,315,0.0,0.0,99,0.00,,,0.01,meteobridge,2013-08-19 05:00:00,
2013-08-19 01:06:00,69.3,68.9,30.12,NW,315,0.0,0.0,99,0.00,,,0.01,meteobridge,2013-08-19 05:06:00,
2013-08-19 01:11:00,69.3,68.9,30.11,NW,315,0.0,0.0,99,0.00,,,0.01,meteobridge,2013-08-19 05:11:00,
2013-08-19 01:17:00,69.4,69.1,30.11,NW,315,0.0,0.0,99,0.01,,,0.02,meteobridge,2013-08-19 05:17:00,
2013-08-19 01:23:00,69.4,69.1,30.11,NW,315,0.0,0.0,99,0.01,,,0.02,meteobridge,2013-08-19 05:23:00,
2013-08-19 01:29:00,69.4,69.1,30.11,NW,315,0.0,0.0,99,0.01,,,0.02,meteobridge,2013-08-19 05:29:00,
2013-08-19 01:35:00,69.3,68.9,30.11,NW,315,0.0,0.0,99,0.01,,,0.02,meteobridge,2013-08-19 05:35:00,
2013-08-19 01:41:00,69.3,68.9,30.11,NW,315,0.0,0.0,99,0.01,,,0.02,meteobridge,2013-08-19 05:41:00,
2013-08-19 01:47:00,69.3,68.9,30.11,NW,315,0.0,0.0,99,0.01,,,0.02,meteobridge,2013-08-19 05:47:00,
2013-08-19 01:53:00,69.3,68.9,30.10,NW,315,0.0,0.0,99,0.01,,,0.02,meteobridge,2013-08-19 05:53:00,
2013-08-19 01:59:00,69.1,68.7,30.09,NW,315,0.0,0.0,99,0.01,,,0.02,meteobridge,2013-08-19 05:59:00,
2013-08-19 02:04:00,69.1,68.7,30.09,NW,315,0.0,0.0,99,0.01,,,0.02,meteobridge,2013-08-19 06:04:00,
2013-08-19 02:10:00,69.1,68.7,30.09,NW,315,0.0,0.0,99,0.01,,,0.02,meteobridge,2013-08-19 06:10:00,
2013-08-19 02:16:00,68.9,68.5,30.09,NW,315,0.0,0.0,99,0.00,,,0.02,meteobridge,2013-08-19 06:16:00,
2013-08-19 02:22:00,68.9,68.5,30.09,NW,315,0.0,0.0,99,0.00,,,0.02,meteobridge,2013-08-19 06:22:00,
2013-08-19 02:28:00,68.9,68.5,30.09,NW,315,0.0,0.0,99,0.00,,,0.02,meteobridge,2013-08-19 06:28:00,
2013-08-19 02:34:00,68.9,68.5,30.09,NW,315,0.0,0.0,99,0.00,,,0.02,meteobridge,2013-08-19 06:34:00,
2013-08-19 02:40:00,68.7,68.4,30.09,NW,315,0.0,0.0,99,0.00,,,0.02,meteobridge,2013-08-19 06:40:00,
2013-08-19 02:45:00,68.7,68.4,30.09,NW,315,0.0,0.0,99,0.00,,,0.02,meteobridge,2013-08-19 06:45:00,
2013-08-19 02:51:00,68.7,68.4,30.09,NW,315,0.0,0.0,99,0.00,,,0.02,meteobridge,2013-08-19 06:51:00,
2013-08-19 02:57:00,68.5,68.2,30.09,NW,315,0.0,0.0,99,0.00,,,0.02,meteobridge,2013-08-19 06:57:00,
2013-08-19 03:03:00,68.7,68.4,30.08,NW,315,0.0,0.0,99,0.00,,,0.02,meteobridge,2013-08-19 07:03:00,
2013-08-19 03:09:00,68.5,68.2,30.09,NW,315,0.0,0.0,99,0.00,,,0.02,meteobridge,2013-08-19 07:09:00,
2013-08-19 03:15:00,68.5,68.2,30.09,NW,315,0.0,0.0,99,0.00,,,0.02,meteobridge,2013-08-19 07:15:00,
2013-08-19 03:21:00,68.5,68.2,30.09,NW,315,0.0,0.0,99,0.00,,,0.02,meteobridge,2013-08-19 07:21:00,
2013-08-19 03:27:00,68.5,68.2,30.09,NW,315,0.0,0.0,99,0.00,,,0.02,meteobridge,2013-08-19 07:27:00,
2013-08-19 03:32:00,68.5,68.2,30.09,NW,315,0.0,0.0,99,0.00,,,0.02,meteobridge,2013-08-19 07:32:00,
2013-08-19 03:38:00,68.5,68.2,30.09,NW,315,0.0,0.0,99,0.00,,,0.02,meteobridge,2013-08-19 07:38:00,
2013-08-19 03:44:00,68.5,68.2,30.09,NW,315,0.0,0.0,99,0.00,,,0.02,meteobridge,2013-08-19 07:44:00,
2013-08-19 03:50:00,68.5,68.2,30.09,NW,315,0.0,0.0,99,0.00,,,0.02,meteobridge,2013-08-19 07:50:00,
2013-08-19 03:56:00,68.5,68.2,30.08,NW,315,0.0,0.0,99,0.00,,,0.02,meteobridge,2013-08-19 07:56:00,
2013-08-19 04:02:00,68.5,68.2,30.08,NW,315,0.0,0.0,99,0.00,,,0.02,meteobridge,2013-08-19 08:02:00,
2013-08-19 04:08:00,68.4,68.0,30.08,NW,315,0.0,0.0,99,0.00,,,0.02,meteobridge,2013-08-19 08:08:00,
2013-08-19 04:14:00,68.4,68.0,30.08,NW,315,0.0,0.0,99,0.00,,,0.02,meteobridge,2013-08-19 08:14:00,
2013-08-19 04:19:00,68.5,68.2,30.08,NW,315,0.0,0.0,99,0.00,,,0.02,meteobridge,2013-08-19 08:19:00,
2013-08-19 04:25:00,68.5,68.2,30.08,NW,315,0.0,0.0,99,0.00,,,0.02,meteobridge,2013-08-19 08:25:00,
2013-08-19 04:31:00,68.4,68.0,30.08,NW,315,0.0,0.0,99,0.00,,,0.02,meteobridge,2013-08-19 08:31:00,
2013-08-19 04:37:00,68.4,68.0,30.08,NW,315,0.0,0.0,99,0.00,,,0.02,meteobridge,2013-08-19 08:37:00,
2013-08-19 04:43:00,68.4,68.0,30.08,NW,315,0.0,0.0,99,0.00,,,0.02,meteobridge,2013-08-19 08:43:00,
2013-08-19 04:49:00,68.4,68.0,30.08,NW,315,0.0,0.0,99,0.00,,,0.02,meteobridge,2013-08-19 08:49:00,
2013-08-19 04:55:00,68.4,68.0,30.07,NW,315,0.0,0.0,99,0.00,,,0.02,meteobridge,2013-08-19 08:55:00,
2013-08-19 05:01:00,68.4,68.0,30.07,NW,315,0.0,0.0,99,0.00,,,0.02,meteobridge,2013-08-19 09:01:00,
2013-08-19 05:06:00,68.4,68.0,30.07,NW,315,0.0,0.0,99,0.00,,,0.02,meteobridge,2013-08-19 09:06:00,
2013-08-19 05:12:00,68.2,67.8,30.07,NW,315,0.0,0.0,99,0.00,,,0.02,meteobridge,2013-08-19 09:12:00,
2013-08-19 05:18:00,68.2,67.8,30.07,NW,315,0.0,0.0,99,0.00,,,0.02,meteobridge,2013-08-19 09:18:00,
2013-08-19 05:24:00,68.2,67.8,30.08,NW,315,0.0,0.0,99,0.00,,,0.02,meteobridge,2013-08-19 09:24:00,
2013-08-19 05:30:00,68.2,67.8,30.07,NW,315,0.0,0.0,99,0.00,,,0.02,meteobridge,2013-08-19 09:30:00,
2013-08-19 05:36:00,68.2,67.8,30.07,NW,315,0.0,0.0,99,0.00,,,0.02,meteobridge,2013-08-19 09:36:00,
2013-08-19 05:42:00,68.2,67.8,30.07,NW,315,0.0,0.0,99,0.00,,,0.02,meteobridge,2013-08-19 09:42:00,
2013-08-19 05:48:00,68.2,67.8,30.07,NW,315,0.0,0.0,99,0.00,,,0.02,meteobridge,2013-08-19 09:48:00,
2013-08-19 05:53:00,68.2,67.8,30.07,NW,315,0.0,0.0,99,0.00,,,0.02,meteobridge,2013-08-19 09:53:00,
2013-08-19 05:59:00,68.2,67.8,30.06,NW,315,0.0,0.0,99,0.00,,,0.02,meteobridge,2013-08-19 09:59:00,
2013-08-19 06:05:00,68.2,67.8,30.06,NW,315,0.0,0.0,99,0.00,,,0.02,meteobridge,2013-08-19 10:05:00,
2013-08-19 06:11:00,68.2,67.8,30.07,NW,315,0.0,0.0,99,0.00,,,0.02,meteobridge,2013-08-19 10:11:00,
2013-08-19 06:17:00,68.2,67.8,30.07,NW,315,0.0,0.0,99,0.00,,,0.02,meteobridge,2013-08-19 10:17:00,
2013-08-19 06:23:00,68.4,68.0,30.06,NW,315,0.0,0.0,99,0.00,,,0.02,meteobridge,2013-08-19 10:23:00,
2013-08-19 06:29:00,68.4,68.0,30.06,NW,315,0.0,0.0,99,0.00,,,0.02,meteobridge,2013-08-19 10:29:00,
2013-08-19 06:35:00,68.4,68.0,30.06,NW,315,0.0,-999.0,99,0.00,,,0.02,meteobridge,2013-08-19 10:35:00,
2013-08-19 06:40:00,68.2,67.8,30.06,East,90,0.0,0.0,99,0.00,,,0.02,meteobridge,2013-08-19 10:40:00,
2013-08-19 06:46:00,68.2,67.8,30.06,East,90,0.0,0.0,99,0.00,,,0.02,meteobridge,2013-08-19 10:46:00,
2013-08-19 06:52:00,68.4,68.0,30.06,East,90,0.0,0.0,99,0.00,,,0.02,meteobridge,2013-08-19 10:52:00,
2013-08-19 06:58:00,68.2,67.8,30.06,East,90,0.0,0.0,99,0.00,,,0.02,meteobridge,2013-08-19 10:58:00,
2013-08-19 07:04:00,68.2,67.8,30.06,East,90,0.0,0.0,99,0.00,,,0.02,meteobridge,2013-08-19 11:04:00,
2013-08-19 07:10:00,68.2,67.8,30.06,East,90,0.0,0.0,99,0.00,,,0.02,meteobridge,2013-08-19 11:10:00,
2013-08-19 07:16:00,68.2,67.8,30.06,East,90,0.0,0.0,99,0.00,,,0.02,meteobridge,2013-08-19 11:16:00,
2013-08-19 07:22:00,68.2,67.8,30.06,East,90,0.0,0.0,99,0.00,,,0.02,meteobridge,2013-08-19 11:22:00,
2013-08-19 07:27:00,68.2,67.8,30.06,East,90,0.0,0.0,99,0.00,,,0.02,meteobridge,2013-08-19 11:27:00,
2013-08-19 07:33:00,68.2,67.8,30.06,NW,315,0.0,0.0,99,0.00,,,0.02,meteobridge,2013-08-19 11:33:00,
2013-08-19 07:39:00,68.2,67.8,30.06,NW,315,0.0,0.0,99,0.00,,,0.02,meteobridge,2013-08-19 11:39:00,
2013-08-19 07:45:00,68.4,68.0,30.06,NW,315,0.0,0.0,99,0.00,,,0.02,meteobridge,2013-08-19 11:45:00,
2013-08-19 07:51:00,68.4,68.0,30.06,WNW,293,0.0,0.0,99,0.00,,,0.02,meteobridge,2013-08-19 11:51:00,
2013-08-19 07:57:00,68.5,68.2,30.06,NW,315,0.0,0.0,99,0.00,,,0.02,meteobridge,2013-08-19 11:57:00,
2013-08-19 08:03:00,68.5,68.2,30.06,NW,315,0.0,0.0,99,0.00,,,0.02,meteobridge,2013-08-19 12:03:00,
2013-08-19 08:09:00,68.5,68.2,30.06,NW,315,0.0,0.0,99,0.00,,,0.02,meteobridge,2013-08-19 12:09:00,
2013-08-19 08:14:00,68.5,68.2,30.06,NW,315,0.0,0.0,99,0.00,,,0.02,meteobridge,2013-08-19 12:14:00,
2013-08-19 08:20:00,68.7,68.4,30.06,West,270,0.0,0.0,99,0.00,,,0.02,meteobridge,2013-08-19 12:20:00,
2013-08-19 08:26:00,68.7,68.4,30.05,West,270,0.7,1.6,99,0.00,,,0.02,meteobridge,2013-08-19 12:26:00,
2013-08-19 08:32:00,68.7,68.4,30.06,West,270,0.7,0.7,99,0.00,,,0.02,meteobridge,2013-08-19 12:32:00,
2013-08-19 08:38:00,69.1,68.7,30.05,NW,315,0.0,0.0,99,0.00,,,0.02,meteobridge,2013-08-19 12:38:00,
2013-08-19 08:44:00,69.1,68.7,30.04,South,180,1.6,1.6,99,0.00,,,0.02,meteobridge,2013-08-19 12:44:00,
2013-08-19 08:50:00,69.1,68.7,30.04,SW,225,0.0,0.0,99,0.00,,,0.02,meteobridge,2013-08-19 12:50:00,
2013-08-19 08:56:00,69.1,68.7,30.05,SW,225,0.0,0.0,99,0.00,,,0.02,meteobridge,2013-08-19 12:56:00,
2013-08-19 09:01:00,69.1,68.7,30.05,SW,225,0.0,-999.0,99,0.00,,,0.02,meteobridge,2013-08-19 13:01:00,
2013-08-19 09:07:00,-999.0,-99.9,30.05,North,-999,-999.0,-999.0,-999,0.00,,,0.02,meteobridge,2013-08-19 13:07:00,
2013-08-19 09:13:00,-999.0,-99.9,30.05,North,-999,-999.0,-999.0,-999,0.00,,,0.02,meteobridge,2013-08-19 13:13:00,
2013-08-19 09:19:00,69.3,68.9,30.06,South,180,0.0,0.0,99,0.00,,,0.02,meteobridge,2013-08-19 13:19:00,
2013-08-19 09:25:00,69.4,69.1,30.08,South,180,0.0,0.0,99,0.00,,,0.02,meteobridge,2013-08-19 13:25:00,
2013-08-19 09:31:00,69.4,69.1,30.08,South,180,0.0,0.0,99,0.00,,,0.02,meteobridge,2013-08-19 13:31:00,
2013-08-19 09:37:00,69.4,69.1,30.07,South,180,0.0,-999.0,99,0.00,,,0.02,meteobridge,2013-08-19 13:37:00,
2013-08-19 09:43:00,69.4,69.1,30.07,South,180,0.0,-999.0,99,0.00,,,0.02,meteobridge,2013-08-19 13:43:00,
2013-08-19 09:48:00,-999.0,-99.9,30.07,North,-999,-999.0,-999.0,-999,0.00,,,0.02,meteobridge,2013-08-19 13:48:00,
2013-08-19 09:54:00,-999.0,-99.9,30.06,North,-999,-999.0,-999.0,-999,0.00,,,0.02,meteobridge,2013-08-19 13:54:00,
2013-08-19 10:00:00,-999.0,-99.9,30.06,North,-999,-999.0,-999.0,-999,0.00,,,0.02,meteobridge,2013-08-19 14:00:00,
2013-08-19 10:06:00,-999.0,-99.9,30.07,North,-999,-999.0,-999.0,-999,0.00,,,0.02,meteobridge,2013-08-19 14:06:00,
2013-08-19 10:12:00,-999.0,-99.9,30.05,North,-999,-999.0,-999.0,-999,0.00,,,0.02,meteobridge,2013-08-19 14:12:00,
2013-08-19 10:18:00,-999.0,-99.9,30.06,North,-999,-999.0,-999.0,-999,0.00,,,0.02,meteobridge,2013-08-19 14:18:00,
2013-08-19 10:24:00,-999.0,-99.9,30.08,North,-999,-999.0,-999.0,-999,0.00,,,0.02,meteobridge,2013-08-19 14:24:00,
2013-08-19 10:30:00,-999.0,-99.9,30.09,North,-999,-999.0,-999.0,-999,0.00,,,0.02,meteobridge,2013-08-19 14:30:00,
2013-08-19 10:35:00,-999.0,-99.9,30.09,North,-999,-999.0,-999.0,-999,-99.99,,,0.02,meteobridge,2013-08-19 14:35:00,
2013-08-19 10:41:00,-999.0,-99.9,30.09,North,-999,-999.0,-999.0,-999,-99.99,,,0.02,meteobridge,2013-08-19 14:41:00,
2013-08-19 10:47:00,-999.0,-99.9,30.10,North,-999,-999.0,-999.0,-999,-99.99,,,0.02,meteobridge,2013-08-19 14:47:00,
2013-08-19 10:53:00,-999.0,-99.9,30.10,South,180,0.7,0.7,-999,0.00,,,0.02,meteobridge,2013-08-19 14:53:00,
2013-08-19 10:59:00,-5.4,-5.6,30.09,South,180,0.7,0.7,99,0.00,,,0.02,meteobridge,2013-08-19 14:59:00,
2013-08-19 11:05:00,-5.4,-5.6,30.10,South,180,0.7,-999.0,99,0.00,,,0.02,meteobridge,2013-08-19 15:05:00,
2013-08-19 11:11:00,-999.0,-99.9,30.11,North,-999,-999.0,-999.0,-999,0.00,,,0.02,meteobridge,2013-08-19 15:11:00,
2013-08-19 11:17:00,-999.0,-99.9,30.11,North,-999,-999.0,-999.0,-999,0.00,,,0.02,meteobridge,2013-08-19 15:17:00,
2013-08-19 11:22:00,-999.0,-99.9,30.10,North,-999,-999.0,-999.0,-999,0.00,,,0.02,meteobridge,2013-08-19 15:22:00,
2013-08-19 11:28:00,-999.0,-99.9,30.11,North,-999,-999.0,-999.0,-999,0.00,,,0.02,meteobridge,2013-08-19 15:28:00,
2013-08-19 11:34:00,-999.0,-99.9,30.11,North,-999,-999.0,-999.0,-999,0.00,,,0.02,meteobridge,2013-08-19 15:34:00,
2013-08-19 11:40:00,-999.0,-99.9,30.10,North,-999,-999.0,-999.0,-999,0.00,,,0.02,meteobridge,2013-08-19 15:40:00,
2013-08-19 11:46:00,-999.0,-99.9,30.10,North,-999,-999.0,-999.0,-999,0.00,,,0.02,meteobridge,2013-08-19 15:46:00,
2013-08-19 11:52:00,-999.0,-99.9,30.10,North,-999,-999.0,-999.0,-999,0.00,,,0.02,meteobridge,2013-08-19 15:52:00,
2013-08-19 11:58:00,-999.0,-99.9,30.10,North,-999,-999.0,-999.0,-999,0.00,,,0.02,meteobridge,2013-08-19 15:58:00,
2013-08-19 12:04:00,-999.0,-99.9,30.10,North,-999,-999.0,-999.0,-999,-99.99,,,0.02,meteobridge,2013-08-19 16:04:00,
2013-08-19 12:09:00,-999.0,-99.9,30.10,North,-999,-999.0,-999.0,-999,-99.99,,,0.02,meteobridge,2013-08-19 16:09:00,
2013-08-19 12:15:00,-999.0,-99.9,30.10,North,-999,-999.0,-999.0,-999,-99.99,,,0.02,meteobridge,2013-08-19 16:15:00,
2013-08-19 12:21:00,-999.0,-99.9,30.10,North,-999,-999.0,-999.0,-999,-99.99,,,0.02,meteobridge,2013-08-19 16:21:00,
2013-08-19 12:27:00,-999.0,-99.9,30.10,North,-999,-999.0,-999.0,-999,-99.99,,,0.02,meteobridge,2013-08-19 16:27:00,
2013-08-19 12:33:00,69.8,69.4,30.10,SW,225,0.7,0.7,99,0.00,,,0.02,meteobridge,2013-08-19 16:33:00,
2013-08-19 12:39:00,70.3,70.0,30.10,SW,225,0.0,0.7,99,0.00,,,0.02,meteobridge,2013-08-19 16:39:00,
2013-08-19 12:45:00,70.3,70.0,30.09,SW,225,0.0,0.0,99,0.00,,,0.02,meteobridge,2013-08-19 16:45:00,
2013-08-19 12:51:00,70.9,70.5,30.10,SW,225,0.0,0.0,99,0.00,,,0.02,meteobridge,2013-08-19 16:51:00,
2013-08-19 12:57:00,70.9,70.5,30.10,SW,225,0.0,0.0,99,0.00,,,0.02,meteobridge,2013-08-19 16:57:00,
2013-08-19 13:02:00,71.1,70.7,30.09,SW,225,0.0,0.0,99,0.00,,,0.02,meteobridge,2013-08-19 17:02:00,
2013-08-19 13:08:00,71.1,70.7,30.09,SW,225,0.0,0.0,99,0.00,,,0.02,meteobridge,2013-08-19 17:08:00,
2013-08-19 13:14:00,72.0,71.6,30.09,SW,225,0.0,0.0,99,0.00,,,0.02,meteobridge,2013-08-19 17:14:00,
2013-08-19 13:20:00,72.7,72.3,30.09,SW,225,0.0,0.0,99,0.00,,,0.02,meteobridge,2013-08-19 17:20:00,
2013-08-19 13:26:00,73.4,73.0,30.09,SW,225,0.0,0.0,99,0.00,,,0.02,meteobridge,2013-08-19 17:26:00,
2013-08-19 13:32:00,73.8,73.4,30.09,SW,225,0.0,0.0,99,0.00,,,0.02,meteobridge,2013-08-19 17:32:00,
2013-08-19 13:38:00,74.3,73.9,30.09,SW,225,1.6,1.6,99,0.00,,,0.02,meteobridge,2013-08-19 17:38:00,
2013-08-19 13:44:00,74.5,74.1,30.09,SW,225,0.0,0.0,99,0.00,,,0.02,meteobridge,2013-08-19 17:44:00,
2013-08-19 13:49:00,74.8,74.5,30.08,SW,225,0.0,0.0,99,0.00,,,0.02,meteobridge,2013-08-19 17:49:00,
2013-08-19 13:55:00,74.8,74.5,30.08,SW,225,0.0,0.0,99,0.00,,,0.02,meteobridge,2013-08-19 17:55:00,
2013-08-19 14:01:00,74.8,74.5,30.08,SW,225,0.0,0.7,99,0.00,,,0.02,meteobridge,2013-08-19 18:01:00,
2013-08-19 14:07:00,74.8,74.5,30.08,SW,225,0.0,0.0,99,0.00,,,0.02,meteobridge,2013-08-19 18:07:00,
2013-08-19 14:13:00,75.0,74.7,30.08,SW,225,0.0,0.7,99,0.00,,,0.02,meteobridge,2013-08-19 18:13:00,
2013-08-19 14:19:00,75.7,75.4,30.08,SW,225,0.0,0.0,99,0.00,,,0.02,meteobridge,2013-08-19 18:19:00,
2013-08-19 14:25:00,77.2,76.8,30.08,SW,225,0.0,0.0,99,0.00,,,0.02,meteobridge,2013-08-19 18:25:00,
2013-08-19 14:31:00,77.9,77.5,30.08,SW,225,0.0,0.0,99,0.00,,,0.02,meteobridge,2013-08-19 18:31:00,
2013-08-19 14:36:00,77.9,77.5,30.07,SW,225,0.0,0.0,99,0.00,,,0.02,meteobridge,2013-08-19 18:36:00,
2013-08-19 14:42:00,78.1,77.7,30.07,SW,225,0.0,0.0,99,0.00,,,0.02,meteobridge,2013-08-19 18:42:00,
2013-08-19 14:48:00,79.2,78.8,30.07,SW,225,0.0,0.0,99,0.00,,,0.02,meteobridge,2013-08-19 18:48:00,
2013-08-19 14:54:00,80.8,80.4,30.07,SW,225,0.0,0.0,99,0.00,,,0.02,meteobridge,2013-08-19 18:54:00,
2013-08-19 15:00:00,80.6,80.2,30.07,SW,225,0.0,0.0,99,0.00,,,0.02,meteobridge,2013-08-19 19:00:00,
2013-08-19 15:06:00,80.4,79.5,30.06,SW,225,0.0,0.0,97,0.00,,,0.02,meteobridge,2013-08-19 19:06:00,
2013-08-19 15:12:00,80.1,79.7,30.06,West,270,0.0,2.2,99,0.00,,,0.02,meteobridge,2013-08-19 19:12:00,
2013-08-19 15:18:00,80.2,79.3,30.06,South,180,1.6,2.2,97,0.00,,,0.02,meteobridge,2013-08-19 19:18:00,
2013-08-19 15:23:00,79.5,78.6,30.06,South,180,2.2,2.2,97,0.00,,,0.02,meteobridge,2013-08-19 19:23:00,
2013-08-19 15:29:00,79.2,78.6,30.05,SW,225,0.7,1.6,98,0.00,,,0.02,meteobridge,2013-08-19 19:29:00,
2013-08-19 15:35:00,79.5,78.6,30.05,SW,225,0.0,0.7,97,0.00,,,0.02,meteobridge,2013-08-19 19:35:00,
2013-08-19 15:41:00,79.7,78.8,30.04,SE,135,0.0,3.1,97,0.00,,,0.02,meteobridge,2013-08-19 19:41:00,
2013-08-19 15:47:00,79.3,77.7,30.04,East,90,2.2,2.2,95,0.00,,,0.02,meteobridge,2013-08-19 19:47:00,
2013-08-19 15:53:00,79.0,78.6,30.04,East,90,0.0,0.7,99,0.00,,,0.02,meteobridge,2013-08-19 19:53:00,
2013-08-19 15:59:00,78.4,77.2,30.04,SW,225,0.7,2.2,96,0.00,,,0.02,meteobridge,2013-08-19 19:59:00,
2013-08-19 16:05:00,78.6,77.7,30.03,SW,225,0.0,0.0,97,0.00,,,0.02,meteobridge,2013-08-19 20:05:00,
2013-08-19 16:10:00,79.5,78.3,30.03,SW,225,0.7,1.6,96,0.00,,,0.02,meteobridge,2013-08-19 20:10:00,
2013-08-19 16:16:00,79.7,78.1,30.03,SW,225,0.0,0.0,95,0.00,,,0.02,meteobridge,2013-08-19 20:16:00,
2013-08-19 16:22:00,79.7,78.8,30.03,SW,225,0.0,0.0,97,0.00,,,0.02,meteobridge,2013-08-19 20:22:00,
2013-08-19 16:28:00,79.5,78.3,30.03,SW,225,0.0,0.0,96,0.00,,,0.02,meteobridge,2013-08-19 20:28:00,
2013-08-19 16:34:00,79.0,78.1,30.03,SW,225,0.0,1.6,97,0.00,,,0.02,meteobridge,2013-08-19 20:34:00,
2013-08-19 16:40:00,78.6,78.3,30.03,SW,225,1.6,1.6,99,0.00,,,0.02,meteobridge,2013-08-19 20:40:00,
2013-08-19 16:46:00,78.6,78.3,30.03,SW,225,1.6,1.6,99,0.00,,,0.02,meteobridge,2013-08-19 20:46:00,
2013-08-19 16:52:00,77.9,77.5,30.03,North,0,0.0,3.1,99,0.00,,,0.02,meteobridge,2013-08-19 20:52:00,
2013-08-19 16:57:00,77.7,77.4,30.03,NW,315,0.7,2.2,99,0.00,,,0.02,meteobridge,2013-08-19 20:57:00,
2013-08-19 17:03:00,77.5,77.2,30.03,NW,315,0.0,0.0,99,0.00,,,0.02,meteobridge,2013-08-19 21:03:00,
2013-08-19 17:09:00,77.7,77.4,30.03,SW,225,0.0,0.7,99,0.00,,,0.02,meteobridge,2013-08-19 21:09:00,
2013-08-19 17:15:00,77.5,77.2,30.02,SW,225,0.0,0.0,99,0.00,,,0.02,meteobridge,2013-08-19 21:15:00,
2013-08-19 17:21:00,77.4,77.0,30.02,SW,225,0.0,0.0,99,0.00,,,0.02,meteobridge,2013-08-19 21:21:00,
2013-08-19 17:27:00,77.4,77.0,30.02,SW,225,0.0,0.0,99,0.00,,,0.02,meteobridge,2013-08-19 21:27:00,
2013-08-19 17:33:00,77.5,77.2,30.02,SW,225,0.0,0.0,99,0.00,,,0.02,meteobridge,2013-08-19 21:33:00,
2013-08-19 17:39:00,77.9,77.5,30.02,SW,225,0.0,0.0,99,0.00,,,0.02,meteobridge,2013-08-19 21:39:00,
2013-08-19 17:44:00,77.9,77.5,30.01,SW,225,0.0,0.0,99,0.00,,,0.02,meteobridge,2013-08-19 21:44:00,
2013-08-19 17:50:00,77.9,77.5,30.02,SW,225,0.0,0.0,99,0.00,,,0.02,meteobridge,2013-08-19 21:50:00,
2013-08-19 17:56:00,77.4,77.0,30.02,SW,225,1.6,1.6,99,0.00,,,0.02,meteobridge,2013-08-19 21:56:00,
2013-08-19 18:02:00,77.0,76.6,30.02,SW,225,0.0,0.0,99,0.00,,,0.02,meteobridge,2013-08-19 22:02:00,
2013-08-19 18:08:00,77.0,76.6,30.02,SW,225,0.0,0.0,99,0.00,,,0.02,meteobridge,2013-08-19 22:08:00,
2013-08-19 18:14:00,77.9,77.5,30.02,SW,225,0.0,0.0,99,0.00,,,0.02,meteobridge,2013-08-19 22:14:00,
2013-08-19 18:20:00,78.4,78.1,30.01,SW,225,0.0,0.0,99,0.00,,,0.02,meteobridge,2013-08-19 22:20:00,
2013-08-19 18:26:00,78.4,78.1,30.02,SW,225,0.0,0.0,99,0.00,,,0.02,meteobridge,2013-08-19 22:26:00,
2013-08-19 18:31:00,78.1,77.7,30.01,SW,225,0.0,0.0,99,0.00,,,0.02,meteobridge,2013-08-19 22:31:00,
2013-08-19 18:37:00,77.2,76.8,30.01,SW,225,0.0,0.0,99,0.00,,,0.02,meteobridge,2013-08-19 22:37:00,
2013-08-19 18:43:00,76.6,76.3,30.02,SW,225,0.0,0.0,99,0.00,,,0.02,meteobridge,2013-08-19 22:43:00,
2013-08-19 18:49:00,77.0,76.6,30.02,SW,225,0.0,0.0,99,0.00,,,0.02,meteobridge,2013-08-19 22:49:00,
2013-08-19 18:55:00,77.0,76.6,30.01,SW,225,0.0,0.0,99,0.00,,,0.02,meteobridge,2013-08-19 22:55:00,
2013-08-19 19:01:00,76.8,76.5,30.01,SW,225,0.0,0.0,99,0.00,,,0.02,meteobridge,2013-08-19 23:01:00,
2013-08-19 19:07:00,76.6,76.3,30.02,SW,225,0.0,0.0,99,0.00,,,0.02,meteobridge,2013-08-19 23:07:00,
2013-08-19 19:13:00,74.8,74.5,30.03,SW,225,0.0,0.0,99,0.00,,,0.02,meteobridge,2013-08-19 23:13:00,
2013-08-19 19:18:00,74.1,73.8,30.03,SW,225,0.0,0.0,99,0.00,,,0.02,meteobridge,2013-08-19 23:18:00,
2013-08-19 19:24:00,73.2,72.9,30.03,SW,225,0.0,0.0,99,0.00,,,0.02,meteobridge,2013-08-19 23:24:00,
2013-08-19 19:30:00,72.7,72.3,30.03,SW,225,0.0,0.0,99,0.00,,,0.02,meteobridge,2013-08-19 23:30:00,
2013-08-19 19:36:00,72.1,71.8,30.03,SW,225,0.0,0.0,99,0.00,,,0.02,meteobridge,2013-08-19 23:36:00,
2013-08-19 19:42:00,71.8,71.4,30.03,SW,225,0.0,0.0,99,0.00,,,0.02,meteobridge,2013-08-19 23:42:00,
2013-08-19 19:48:00,71.4,71.1,30.03,SW,225,0.0,0.0,99,0.00,,,0.02,meteobridge,2013-08-19 23:48:00,
2013-08-19 19:54:00,71.1,70.7,30.03,SW,225,0.0,0.0,99,0.00,,,0.02,meteobridge,2013-08-19 23:54:00,
2013-08-19 20:00:00,70.9,70.5,30.03,SW,225,0.0,0.0,99,0.00,,,0.00,meteobridge,2013-08-20 00:00:00,
2013-08-19 20:05:00,70.7,70.3,30.03,SW,225,0.0,0.0,99,0.00,,,0.00,meteobridge,2013-08-20 00:05:00,
2013-08-19 20:11:00,70.2,69.8,30.03,SW,225,0.0,0.0,99,0.00,,,0.00,meteobridge,2013-08-20 00:11:00,
2013-08-19 20:17:00,70.0,69.6,30.03,SW,225,0.0,0.0,99,0.00,,,0.00,meteobridge,2013-08-20 00:17:00,
2013-08-19 20:23:00,69.6,69.3,30.03,SW,225,0.0,0.0,99,0.00,,,0.00,meteobridge,2013-08-20 00:23:00,
2013-08-19 20:29:00,69.3,68.9,30.03,SW,225,0.0,0.0,99,0.00,,,0.00,meteobridge,2013-08-20 00:29:00,
2013-08-19 20:35:00,69.1,68.7,30.03,SW,225,0.0,0.0,99,0.00,,,0.00,meteobridge,2013-08-20 00:35:00,
2013-08-19 20:41:00,68.9,68.5,30.03,SW,225,0.0,0.0,99,0.00,,,0.00,meteobridge,2013-08-20 00:41:00,
2013-08-19 20:46:00,68.5,68.2,30.03,SW,225,0.0,0.0,99,0.00,,,0.00,meteobridge,2013-08-20 00:46:00,
2013-08-19 20:52:00,68.4,68.0,30.03,SW,225,0.0,0.0,99,0.00,,,0.00,meteobridge,2013-08-20 00:52:00,
2013-08-19 20:58:00,68.2,67.8,30.04,SW,225,0.0,0.0,99,0.00,,,0.00,meteobridge,2013-08-20 00:58:00,
2013-08-19 21:04:00,68.2,67.8,30.04,SW,225,0.0,0.0,99,0.00,,,0.00,meteobridge,2013-08-20 01:04:00,
2013-08-19 21:10:00,67.8,67.5,30.03,SW,225,0.0,0.0,99,0.00,,,0.00,meteobridge,2013-08-20 01:10:00,
2013-08-19 21:16:00,67.6,67.3,30.04,SW,225,0.0,0.0,99,0.00,,,0.00,meteobridge,2013-08-20 01:16:00,
2013-08-19 21:22:00,67.5,67.1,30.04,SW,225,0.0,0.0,99,0.00,,,0.00,meteobridge,2013-08-20 01:22:00,
2013-08-19 21:28:00,67.5,67.1,30.04,SW,225,0.0,0.0,99,0.00,,,0.00,meteobridge,2013-08-20 01:28:00,
2013-08-19 21:34:00,67.3,66.9,30.04,SW,225,0.0,0.0,99,0.00,,,0.00,meteobridge,2013-08-20 01:34:00,
2013-08-19 21:39:00,67.1,66.7,30.05,SW,225,0.0,0.0,99,0.00,,,0.00,meteobridge,2013-08-20 01:39:00,
2013-08-19 21:45:00,66.9,66.6,30.05,SW,225,0.0,0.0,99,0.00,,,0.00,meteobridge,2013-08-20 01:45:00,
2013-08-19 21:51:00,66.9,66.6,30.05,SW,225,0.0,0.0,99,0.00,,,0.00,meteobridge,2013-08-20 01:51:00,
2013-08-19 21:57:00,66.9,66.6,30.05,SW,225,0.0,0.0,99,0.00,,,0.00,meteobridge,2013-08-20 01:57:00,
2013-08-19 22:03:00,66.9,66.6,30.05,SW,225,0.0,0.0,99,0.00,,,0.00,meteobridge,2013-08-20 02:03:00,
2013-08-19 22:09:00,66.7,66.4,30.05,SW,225,0.0,0.0,99,0.00,,,0.00,meteobridge,2013-08-20 02:09:00,
2013-08-19 22:15:00,66.7,66.4,30.05,SW,225,0.0,0.0,99,0.00,,,0.00,meteobridge,2013-08-20 02:15:00,
2013-08-19 22:21:00,66.6,66.2,30.05,SW,225,0.0,0.0,99,0.00,,,0.00,meteobridge,2013-08-20 02:21:00,
2013-08-19 22:26:00,66.4,66.0,30.05,SW,225,0.0,0.0,99,0.00,,,0.00,meteobridge,2013-08-20 02:26:00,
2013-08-19 22:32:00,66.4,66.0,30.05,SW,225,0.0,0.0,99,0.00,,,0.00,meteobridge,2013-08-20 02:32:00,
2013-08-19 22:38:00,66.2,65.8,30.05,SW,225,0.0,0.0,99,0.00,,,0.00,meteobridge,2013-08-20 02:38:00,
2013-08-19 22:44:00,66.2,65.8,30.05,SW,225,0.0,0.0,99,0.00,,,0.00,meteobridge,2013-08-20 02:44:00,
2013-08-19 22:50:00,66.2,65.8,30.05,SW,225,0.0,0.0,99,0.00,,,0.00,meteobridge,2013-08-20 02:50:00,
2013-08-19 22:56:00,66.0,65.7,30.06,SW,225,0.0,0.0,99,0.00,,,0.00,meteobridge,2013-08-20 02:56:00,
2013-08-19 23:02:00,66.0,65.7,30.05,SW,225,0.0,0.0,99,0.00,,,0.00,meteobridge,2013-08-20 03:02:00,
2013-08-19 23:07:00,66.0,65.7,30.05,SW,225,0.0,0.0,99,0.00,,,0.00,meteobridge,2013-08-20 03:07:00,
2013-08-19 23:13:00,65.8,65.5,30.06,SW,225,0.0,0.0,99,0.00,,,0.00,meteobridge,2013-08-20 03:13:00,
2013-08-19 23:19:00,65.7,65.3,30.05,SW,225,0.0,0.0,99,0.00,,,0.00,meteobridge,2013-08-20 03:19:00,
2013-08-19 23:25:00,65.5,65.1,30.05,SW,225,0.0,0.0,99,0.00,,,0.00,meteobridge,2013-08-20 03:25:00,
2013-08-19 23:31:00,65.5,65.1,30.06,SW,225,0.0,0.0,99,0.00,,,0.00,meteobridge,2013-08-20 03:31:00,
2013-08-19 23:37:00,65.5,65.1,30.06,SW,225,0.0,0.0,99,0.00,,,0.00,meteobridge,2013-08-20 03:37:00,
2013-08-19 23:43:00,65.3,64.9,30.06,SW,225,0.0,0.0,99,0.00,,,0.00,meteobridge,2013-08-20 03:43:00,
2013-08-19 23:49:00,65.3,64.9,30.06,SW,225,0.0,0.0,99,0.00,,,0.00,meteobridge,2013-08-20 03:49:00,
2013-08-19 23:54:00,65.3,64.9,30.06,SW,225,0.0,0.0,99,0.00,,,0.00,meteobridge,2013-08-20 03:54:00,